Regional Weather Roundup
Issued by NWS

Home | Current Version | Previous Version | Graphics & Text | Print | Product List | Glossary Off
Versions: 1 2 3 4 5 6 7 8 9 10 11 12 13 14 15 16 17 18 19 20 21 22 23 24 25 26 27 28 29 30 31 32 33 34 35 36 37 38 39 40 41 42 43 44 45 46 47 48 49 50

000
ASUS43 KTOP 290708
RWRKS

WEATHER ROUNDUP FOR KANSAS
NATIONAL WEATHER SERVICE GOODLAND KS
100 AM CST THU JAN 29 2015

NOTE:  "FAIR" INDICATES FEW OR NO CLOUDS BELOW 12,000 FEET WITH NO
SIGNIFICANT WEATHER AND/OR OBSTRUCTIONS TO VISIBILITY.

KSZ001>006-013>018-027>032-041>047-290800-
NORTHWEST KANSAS

CITY           SKY/WX    TMP DP  RH WIND       PRES   REMARKS
GOODLAND       CLEAR     39  33  79 N14       30.26R WCI  31
HAYS           CLEAR     48  30  49 NW17      30.14R
HILL CITY      CLEAR     47  32  56 NW21G29   30.18R
RUSSELL        CLEAR     49  33  54 NW23      30.10R
$$

KSZ061>065-074>080-084>089-290800-
SOUTHWEST KANSAS

CITY           SKY/WX    TMP DP  RH WIND       PRES   REMARKS
DODGE CITY     CLEAR     47  33  58 N18       30.16S
ELKHART          N/A     42  29  60 NW8         N/A
GARDEN CITY    CLEAR     45  33  63 N22       30.16S
LIBERAL        CLEAR     41  30  65 NW10      30.23S
PRATT          CLEAR     46  32  57 NW15      30.14R
$$

KSZ066>073-081>083-090>101-290800-
SOUTHEAST KANSAS

CITY           SKY/WX    TMP DP  RH WIND       PRES   REMARKS
CHANUTE        CLEAR     55  35  47 NW12      29.97R
COFFEYVILLE    MOCLDY    60  34  37 NW15      29.97R
HUTCHINSON     CLEAR     47  30  51 NW12      30.09R
MEDICINE LODGE   N/A     51  32  48 N13       30.11R
NEWTON         CLEAR     48  27  43 NW13      30.07R
PARSONS        PTCLDY    57  35  43 NW13      29.97R
WICHITA INTL   PTCLDY    52  30  43 NW13      30.07R
WICHITA JABRA  CLEAR     52  30  43 NW13      30.06R
WICHITA MCCONL CLEAR     55  31  39 NW12      30.06R
WINFIELD       CLEAR     54  31  41 NW15      30.05R
$$

KSZ007>012-019>026-033>040-048>060-102>105-290800-
NORTHEAST KANSAS

CITY           SKY/WX    TMP DP  RH WIND       PRES   REMARKS
CONCORDIA      CLEAR     48  35  60 N21G30    30.06R
EMPORIA        CLEAR     52  31  44 NW16G25   29.98R
LAWRENCE       CLEAR     50  36  58 NW18G28   29.94R
MANHATTAN      CLEAR     51  33  50 NW3       30.00R
MARYSVILLE     CLOUDY    45  36  70 N29G37    30.03R
OLATHE IND     CLEAR     50  37  61 NW26G43   29.91R
OLATHE EXE     CLEAR     51  37  58 NW18G35   29.89R
SALINA         FAIR      49  31  49 W13       30.07R
TOPEKA BILLARD PTCLDY    51  35  54 NW9       29.96R
TOPEKA FORBES  CLEAR     51  35  54 NW16G25   29.95R
$$



USA.gov is the U.S. government's official web portal to all federal, state and local government web resources and services.